[[{"header":{"parameterUnit":"m.s-1","parameterCategory":1,"la1":30.2991,"la2":30.254,"lo1":-89.0895,"lo2":-89.0444,"dy":0.0017,"dx":0.0017,"nx":28,"ny":28,"refTime":"2025-02-13T03:00:00:Z","depth":0,"parameterNumber":2,"parameterNumberName":"U-component_of_WINDS"},"data":[0,0,0,0,0,0,0,0,0,0,0,0,0,0,0,0,0,0,0,0,0,0,0,0,0,0,0,0,0,0,0,0,0,0,0,0,0,0,0,0,0,0,0,0,0,0,0,0,0,0,0,0,0,0,0,0,0,0,-0.0204,-0.0204,0,-0.0182,-0.0182,-0.0181,-0.016,-0.016,-0.016,-0.0159,-0.0138,-0.0138,-0.0137,0,0,0,0,0,0,0,0,0,0,0,0,0,-0.0227,-0.0227,-0.0204,-0.0204,-0.0203,-0.0182,-0.0182,-0.0181,-0.016,-0.016,-0.016,-0.0159,-0.0138,-0.0138,-0.0137,0,0,0,0,0,0,0,0,0,0,0,0,0,-0.0212,-0.0227,-0.0204,-0.019,-0.0189,-0.0182,-0.0182,-0.0181,-0.016,-0.016,-0.0159,-0.0159,-0.0138,-0.0138,-0.0137,-0.0143,0,0,-0.0136,-0.0135,0,0,0,0,0,0,0,0,-0.0213,-0.0211,-0.0192,-0.0191,-0.0189,-0.0173,-0.0182,-0.0168,-0.016,-0.0171,-0.0159,-0.0159,-0.015,-0.0149,-0.0145,-0.0141,-0.0141,-0.0136,-0.0135,-0.0135,-0.0135,0,0,0,0,0,0,0,-0.0214,-0.0212,-0.0195,-0.0192,-0.019,-0.0185,-0.0182,-0.0179,-0.0163,-0.017,-0.0169,-0.0166,-0.0149,-0.0146,-0.0145,-0.014,-0.0136,-0.0135,-0.0135,-0.0135,-0.0138,-0.0138,0,0,0,0,0,0,-0.0217,-0.0213,-0.0196,-0.0195,-0.02,-0.0185,-0.0182,-0.0179,-0.0163,-0.016,-0.0167,-0.0165,-0.0147,-0.0145,-0.0144,-0.0148,-0.0135,-0.0135,-0.0134,-0.0138,-0.0138,-0.0139,0,0,0,0,0,0,-0.0218,-0.0216,-0.0197,-0.0203,-0.0201,-0.0185,-0.0182,-0.0179,-0.0175,-0.016,-0.0158,-0.0166,-0.0147,-0.0145,-0.0143,-0.0147,-0.0134,-0.0134,-0.0137,-0.0138,-0.0138,-0.0158,0,0,0,0,0,0,-0.0219,-0.0216,-0.0218,-0.0204,-0.02,-0.0196,-0.0182,-0.0179,-0.0175,-0.0173,-0.0159,-0.0157,-0.0146,-0.0143,-0.0142,-0.0146,-0.0134,-0.0137,-0.0138,-0.0138,-0.0157,-0.0159,-0.0161,0,0,0,0,0,-0.0219,-0.0225,-0.0219,-0.0217,-0.0203,-0.0196,-0.0195,-0.0182,-0.0175,-0.0177,-0.0167,-0.0157,-0.0147,-0.0143,-0.0142,-0.0146,-0.0136,-0.0137,-0.0138,-0.0156,-0.0159,-0.0161,0,0,0,0,0,0,-0.0242,-0.0223,-0.0216,-0.0217,-0.0208,-0.0193,-0.0195,-0.0185,-0.0179,-0.0178,-0.0162,-0.0159,-0.0159,-0.0152,-0.0149,-0.015,-0.014,-0.0141,-0.0154,-0.0157,-0.0159,-0.0161,-0.0133,0,0,0,0,0,-0.0247,-0.0243,-0.0227,-0.023,-0.0226,-0.0211,-0.0208,-0.0199,-0.0189,-0.0186,-0.0176,-0.0167,-0.0162,-0.0159,-0.0153,-0.0155,-0.0152,-0.0157,-0.0159,-0.0161,-0.0162,-0.0162,-0.0164,-0.0141,-0.0141,-0.0141,0,0,-0.0257,-0.0246,-0.0245,-0.0234,-0.0226,-0.0223,-0.0208,-0.0206,-0.0203,-0.0185,-0.0183,-0.0175,-0.0164,-0.0164,-0.0164,-0.0159,-0.0167,-0.0162,-0.0164,-0.0164,-0.0163,-0.0165,-0.0167,-0.0142,-0.0142,-0.0142,0,0,-0.0274,-0.0266,-0.0267,-0.0259,-0.0247,-0.0237,-0.0237,-0.0223,-0.0217,-0.0214,-0.02,-0.0197,-0.0188,-0.0181,-0.0176,-0.0188,-0.0179,-0.0187,-0.0198,-0.0198,-0.02,-0.0201,-0.0205,-0.0207,-0.0187,-0.0187,-0.0187,0,-0.0289,-0.0283,-0.0268,-0.0266,-0.0261,-0.0244,-0.0245,-0.0238,-0.0225,-0.0222,-0.0216,-0.0204,-0.0196,-0.0193,-0.0196,-0.0193,-0.0192,-0.0189,-0.02,-0.0202,-0.0203,-0.0207,-0.0208,-0.0188,-0.0188,-0.0188,-0.0188,0,-0.0301,-0.0297,-0.0299,-0.0286,-0.0281,-0.0281,-0.0265,-0.0262,-0.0253,-0.0243,-0.024,-0.0229,-0.022,-0.0219,-0.021,-0.0214,-0.0211,-0.0203,-0.0194,-0.0206,-0.0209,-0.0211,-0.019,-0.019,-0.0189,-0.0189,0,0,-0.0333,-0.0311,-0.0312,-0.0306,-0.029,-0.0287,-0.0285,-0.0276,-0.0273,-0.0264,-0.0262,-0.0254,-0.0246,-0.024,-0.023,-0.023,-0.0239,-0.0221,-0.0221,-0.0225,-0.0243,-0.0249,-0.0251,-0.0233,-0.0233,-0.0233,-0.0243,0,-0.0348,-0.0343,-0.0329,-0.0328,-0.0324,-0.0307,-0.0305,-0.0295,-0.0286,-0.028,-0.027,-0.0264,-0.0254,-0.025,-0.0249,-0.0239,-0.0243,-0.0237,-0.023,-0.023,-0.0233,-0.0253,-0.026,-0.027,-0.0245,-0.0245,-0.0245,0,-0.0365,-0.0356,-0.0355,-0.0339,-0.0336,-0.0335,-0.0324,-0.032,-0.0308,-0.0301,-0.0294,-0.0282,-0.0278,-0.0269,-0.0263,-0.026,-0.0255,-0.0249,-0.0249,-0.0249,-0.0239,-0.0252,-0.0273,-0.0275,-0.0247,-0.0247,-0.0247,0,-0.0388,-0.0376,-0.0373,-0.0368,-0.0349,-0.0349,-0.0341,-0.0328,-0.0323,-0.0314,-0.0311,-0.0301,-0.0297,-0.0289,-0.0275,-0.027,-0.0271,-0.026,-0.0265,-0.0265,-0.0266,-0.0266,-0.0287,-0.0263,-0.0263,-0.0263,-0.0263,0,-0.0406,-0.0406,-0.0383,-0.0382,-0.0381,-0.0364,-0.0363,-0.0354,-0.0342,-0.0338,-0.0323,-0.032,-0.0301,-0.0295,-0.0284,-0.0281,-0.0279,-0.0273,-0.027,-0.0274,-0.0275,-0.0272,-0.0271,-0.0264,-0.0264,-0.0263,-0.0263,0,-0.0432,-0.0417,-0.0413,-0.0395,-0.039,-0.039,-0.0375,-0.0372,-0.0361,-0.0356,-0.0354,-0.0336,-0.0328,-0.0313,-0.0302,-0.0294,-0.0293,-0.0288,-0.0297,-0.0295,-0.03,-0.03,-0.0319,-0.0321,-0.0296,-0.0297,-0.0297,0,-0.0445,-0.0444,-0.0425,-0.0421,-0.0414,-0.0408,-0.0402,-0.0385,-0.038,-0.0365,-0.0364,-0.0355,-0.0347,-0.0335,-0.0321,-0.0312,-0.0306,-0.0314,-0.0305,-0.0309,-0.0306,-0.0306,-0.0306,-0.0316,-0.0317,-0.0317,-0.0317,0,-0.0469,-0.0461,-0.0453,-0.0443,-0.0436,-0.0427,-0.0418,-0.0415,-0.0396,-0.039,-0.0382,-0.0375,-0.0362,-0.0353,-0.0341,-0.0333,-0.0322,-0.032,-0.032,-0.0325,-0.033,-0.0327,-0.0302,-0.032,-0.0319,-0.0319,-0.0319,-0.0319,-0.0488,-0.0487,-0.0473,-0.0465,-0.0455,-0.0446,-0.0442,-0.043,-0.0422,-0.041,-0.0401,-0.0393,-0.0379,-0.0362,-0.0354,-0.0347,-0.0342,-0.0343,-0.0343,-0.0344,-0.0345,-0.0331,-0.0345,-0.0345,-0.0345,-0.0345,-0.0345,0,-0.0511,-0.0501,-0.0494,-0.048,-0.0473,-0.0462,-0.045,-0.0445,-0.0438,-0.0427,-0.0419,-0.0408,-0.0399,-0.0383,-0.0373,-0.037,-0.0364,-0.0368,-0.0368,-0.0366,-0.0351,-0.0351,-0.0372,-0.0372,-0.0372,-0.0372,-0.0372,-0.0372,-0.0523,-0.0519,-0.0509,-0.0499,-0.0489,-0.0481,-0.0475,-0.0466,-0.0456,-0.0445,-0.0437,-0.0427,-0.0414,-0.0401,-0.0392,-0.0388,-0.0384,-0.0389,-0.0383,-0.037,-0.0367,-0.0365,-0.0365,-0.0389,-0.0389,-0.0399,-0.0399,-0.0399]},{"header":{"parameterUnit":"m.s-1","parameterCategory":1,"la1":30.2991,"la2":30.254,"lo1":-89.0895,"lo2":-89.0444,"dy":0.0017,"dx":0.0017,"nx":28,"ny":28,"refTime":"2025-02-13T03:00:00:Z","depth":0,"parameterNumber":3,"parameterNumberName":"V-component_of_WINDS"},"data":[0,0,0,0,0,0,0,0,0,0,0,0,0,0,0,0,0,0,0,0,0,0,0,0,0,0,0,0,0,0,0,0,0,0,0,0,0,0,0,0,0,0,0,0,0,0,0,0,0,0,0,0,0,0,0,0,0,0,-7.9414,-7.9415,0,-7.9517,-7.9519,-7.952,-7.9438,-7.9434,-7.9431,-7.9427,-7.9527,-7.9532,-7.9538,0,0,0,0,0,0,0,0,0,0,0,0,0,-7.9139,-7.9145,-7.9414,-7.9415,-7.9416,-7.9517,-7.9519,-7.952,-7.9438,-7.9434,-7.943,-7.9426,-7.9525,-7.9532,-7.9539,0,0,0,0,0,0,0,0,0,0,0,0,0,-7.9252,-7.9147,-7.9413,-7.9388,-7.9387,-7.9517,-7.9519,-7.952,-7.9439,-7.9434,-7.9429,-7.9424,-7.9522,-7.9531,-7.954,-7.9699,0,0,-7.9567,-7.957,0,0,0,0,0,0,0,0,-7.9246,-7.9262,-7.939,-7.939,-7.9389,-7.9459,-7.9458,-7.958,-7.9441,-7.9419,-7.9427,-7.9421,-7.9508,-7.9518,-7.9548,-7.9703,-7.9707,-7.9567,-7.9573,-7.9577,-7.9579,0,0,0,0,0,0,0,-7.9238,-7.9257,-7.9454,-7.9392,-7.9391,-7.9369,-7.938,-7.9481,-7.9491,-7.9421,-7.9415,-7.9429,-7.9506,-7.954,-7.955,-7.9709,-7.9567,-7.9575,-7.958,-7.9584,-8.0001,-8.0006,0,0,0,0,0,0,-7.9234,-7.9251,-7.9451,-7.9458,-7.9303,-7.9379,-7.939,-7.9442,-7.949,-7.9493,-7.9433,-7.9424,-7.9528,-7.954,-7.9553,-7.9744,-7.9576,-7.9585,-7.959,-7.9995,-8.0002,-8.0008,0,0,0,0,0,0,-7.9228,-7.9252,-7.9447,-7.9353,-7.9376,-7.9389,-7.9448,-7.9447,-7.948,-7.95,-7.95,-7.9466,-7.9524,-7.9541,-7.9664,-7.9746,-7.9589,-7.9597,-7.9988,-7.9997,-8.0005,-8.0125,0,0,0,0,0,0,-7.9221,-7.9251,-7.9313,-7.9355,-7.9382,-7.9558,-7.9453,-7.9453,-7.9497,-7.9486,-7.9531,-7.9533,-7.9521,-7.9651,-7.9673,-7.9755,-7.9604,-7.9981,-7.9992,-8.0002,-8.0114,-8.0137,-8.0157,0,0,0,0,0,-7.9211,-7.934,-7.9316,-7.9341,-7.9459,-7.9563,-7.9578,-7.9564,-7.9503,-7.9565,-7.9578,-7.9531,-7.9734,-7.9665,-7.9688,-7.9774,-7.9975,-7.9989,-8.0001,-8.0104,-8.0132,-8.0156,0,0,0,0,0,0,-7.9304,-7.9345,-7.9319,-7.9466,-7.9512,-7.9549,-7.9626,-7.9594,-7.9655,-7.9643,-7.9621,-7.9632,-7.9761,-7.978,-7.9702,-7.9931,-7.9845,-7.9863,-7.9915,-7.9942,-7.9962,-7.9955,-7.9611,0,0,0,0,0,-7.9342,-7.9425,-7.9455,-7.9582,-7.9607,-7.9613,-7.9657,-7.9643,-7.9688,-7.9707,-7.9728,-7.9772,-7.9846,-7.9894,-7.9963,-8.0116,-8.0125,-8.0187,-8.0208,-8.0226,-8.0242,-8.0325,-8.0354,-8.0051,-8.0051,-8.005,0,0,-7.942,-7.9453,-7.9506,-7.9602,-7.9636,-7.972,-7.9629,-7.9722,-7.9785,-7.972,-7.9839,-7.9856,-7.9904,-8.0043,-8.0105,-8.0062,-8.0328,-8.0242,-8.0256,-8.0263,-8.0342,-8.037,-8.0396,-8.006,-8.0058,-8.0057,0,0,-7.9607,-7.964,-7.975,-7.9787,-7.9841,-7.9844,-7.9871,-7.9914,-7.9924,-8.0043,-7.9997,-8.0069,-8.0196,-8.0233,-8.0268,-8.0472,-8.0431,-8.0494,-8.0605,-8.0687,-8.0711,-8.0732,-8.0805,-8.0832,-8.051,-8.051,-8.0511,0,-7.9696,-7.9825,-7.981,-7.9908,-7.9952,-7.99,-8.0011,-8.0046,-8.0119,-8.0149,-8.0101,-8.0261,-8.0289,-8.0437,-8.0487,-8.0517,-8.0546,-8.0489,-8.0709,-8.073,-8.0749,-8.0819,-8.0846,-8.0518,-8.0517,-8.0516,-8.0515,0,-7.9933,-8.0023,-8.0105,-8.018,-8.0233,-8.0336,-8.0336,-8.0391,-8.0373,-8.0381,-8.0503,-8.0536,-8.0611,-8.0645,-8.0626,-8.0791,-8.0763,-8.0712,-8.0625,-8.0786,-8.0851,-8.0877,-8.0528,-8.0526,-8.0523,-8.0522,0,0,-8.0179,-8.0248,-8.0278,-8.0312,-8.0369,-8.0437,-8.0538,-8.0614,-8.0662,-8.0714,-8.0798,-8.0908,-8.0862,-8.0902,-8.0887,-8.0959,-8.112,-8.09,-8.09,-8.094,-8.1304,-8.1342,-8.1373,-8.1094,-8.1099,-8.1103,-8.13,0,-8.0369,-8.0549,-8.054,-8.0707,-8.079,-8.0744,-8.0832,-8.0875,-8.0886,-8.0956,-8.0967,-8.1046,-8.0979,-8.1003,-8.1072,-8.1086,-8.1192,-8.1071,-8.1171,-8.1174,-8.1161,-8.1407,-8.1448,-8.1632,-8.1325,-8.133,-8.1333,0,-8.0614,-8.0679,-8.0856,-8.0902,-8.0936,-8.1016,-8.1087,-8.1155,-8.1203,-8.1206,-8.1253,-8.1227,-8.1328,-8.1238,-8.1377,-8.1295,-8.1335,-8.1348,-8.1355,-8.1364,-8.1264,-8.1423,-8.1691,-8.1719,-8.1372,-8.1369,-8.1366,0,-8.0777,-8.0908,-8.1031,-8.1062,-8.1119,-8.1176,-8.1202,-8.1245,-8.1293,-8.1353,-8.1384,-8.1454,-8.1493,-8.1548,-8.1541,-8.1476,-8.1683,-8.1592,-8.1687,-8.1688,-8.1732,-8.173,-8.2011,-8.1758,-8.1758,-8.1757,-8.1756,0,-8.0991,-8.1101,-8.1106,-8.1181,-8.1304,-8.1292,-8.1412,-8.1431,-8.1471,-8.1549,-8.1511,-8.1584,-8.1571,-8.1644,-8.1639,-8.1756,-8.1773,-8.1777,-8.1775,-8.1781,-8.1781,-8.1807,-8.1794,-8.1764,-8.1763,-8.1761,-8.176,0,-8.1193,-8.1201,-8.1333,-8.1377,-8.1391,-8.1479,-8.1516,-8.1587,-8.1596,-8.1695,-8.1717,-8.173,-8.1814,-8.1813,-8.1908,-8.1905,-8.2048,-8.203,-8.2033,-8.2029,-8.2125,-8.2116,-8.2433,-8.2474,-8.2194,-8.2196,-8.2199,0,-8.1329,-8.1413,-8.1468,-8.152,-8.155,-8.1632,-8.1681,-8.1673,-8.1725,-8.1788,-8.1852,-8.1933,-8.1998,-8.2134,-8.215,-8.2223,-8.2207,-8.2313,-8.2217,-8.2222,-8.2209,-8.2205,-8.2213,-8.2331,-8.2335,-8.2337,-8.2339,0,-8.157,-8.157,-8.1644,-8.172,-8.1781,-8.1839,-8.1893,-8.1937,-8.1934,-8.1994,-8.2082,-8.2133,-8.2231,-8.2312,-8.2383,-8.2407,-8.2373,-8.237,-8.2395,-8.2403,-8.2401,-8.2404,-8.2084,-8.2362,-8.236,-8.2358,-8.2357,-8.2356,-8.1743,-8.1817,-8.1868,-8.1952,-8.1993,-8.2045,-8.2115,-8.2134,-8.2208,-8.229,-8.2279,-8.2377,-8.2423,-8.2515,-8.2546,-8.2621,-8.2583,-8.2621,-8.263,-8.264,-8.2651,-8.239,-8.2633,-8.2633,-8.2632,-8.2632,-8.2631,0,-8.1983,-8.2014,-8.2092,-8.2171,-8.2237,-8.2202,-8.2261,-8.2318,-8.2405,-8.2453,-8.2519,-8.2619,-8.2698,-8.2722,-8.2798,-8.2854,-8.284,-8.2874,-8.287,-8.2876,-8.268,-8.265,-8.2884,-8.2884,-8.2884,-8.2884,-8.2884,-8.2884,-8.2115,-8.2239,-8.2246,-8.2389,-8.2418,-8.2516,-8.2553,-8.2601,-8.2639,-8.2755,-8.2822,-8.2838,-8.2876,-8.2955,-8.3026,-8.303,-8.306,-8.3101,-8.3099,-8.2915,-8.289,-8.2866,-8.2838,-8.3107,-8.3108,-8.329,-8.3292,-8.3293]}]]